Location: Unspecified
(0.0000°N, 0.0000°E)
Time: 00:27:14
(UTC+00:00)

CAPRICORN - Pass Details

Date: 19 May 2026
Orbit: 325 x 40040 km, 64.5° (Epoch: 16 April)

Event Time Altitude Azimuth Distance (km) Brightness Sun altitude
Rises 20:29:07 0° 109° (ESE) 43,119 ? -35.6°
Reaches altitude 10° 21:18:18 10° 105° (ESE) 44,072 ? -46.5°
Maximum altitude 01:42:01 59° 50° (NE) 29,324 ? -57.5°
Drops below altitude 10° 03:32:49 10° 17° (NNE) 13,060 ? -33.5°
Sets 03:39:29 0° 18° (NNE) 12,263 ? -32.0°
